Presure
92 77 132 132 77 74 77 82 87 74 73 80 80 84 171 124 139 147 108 157 81 156 158 88 173 223 217 164 88 131 153 150 199 192 161 121 106 143 134 129 133 153 136
181 118 195 140 186 187 181 88 85 87 78 87 87 109 83 97 159 147 111 89 88 178 134 91 89 122 135 96 174 160 131 96 92 95 96 112 104 113 112 107 106 127 152
191 92 203 210 174 176 183 183 184 174 141 90 89 90 90 89 94 101 215 192 181 280 198 249 226 86 88 91 94 95 94 95 95 98 100 97 100 131 98 103 125 108 173
198 203 186 177 194 203 207 191 190 196 195 199 201 198 162 114 116 118 95 175 94 95 255 219 238 92 94 95 95 98 96 96 163 108 101 97 102 194 175 104 184 107 125
181 195 192 186 197 202 198 184 184 186 185 187 198 193 193 199 197 197 208 221 216 112 205 260 172 228 115 156 95 127 102 98 155 157 103 98 98 103 146 103 107 186 155
203 189 193 193 188 182 180 182 188 187 190 188 188 191 188 195 203 206 235 244 234 261 245 247 249 233 208 235 223 215 212 178 98 96 178 204 202 184 104 179 146 123 171
210 211 202 191 192 195 191 185 189 197 197 198 199 198 201 200 202 234 231 229 226 241 250 236 244 244 226 222 237 223 96 207 205 205 212 217 207 103 205 213 175 205 190
233 230 213 211 201 193 191 192 189 190 199 200 203 205 196 211 229 227 242 220 231 240 230 252 235 238 232 230 222 220 223 225 216 132 129 136 204 163 132 204 202 203 196
210 242 244 232 223 217 213 207 205 207 207 205 199 206 225 230 231 234 227 225 227 217 217 235 240 239 232 226 230 220 216 216 214 213 217 207 205 207 205 203 200 199 202
229 230 232 234 238 237 232 229 229 224 224 226 225 234 231 229 226 226 225 223 221 218 214 215 219 233 233 238 234 229 227 225 214 215 213 214 214 214 200 204 207 210 212
230 219 226 225 228 230 235 238 228 224 226 230 228 231 227 228 227 230 224 222 218 212 218 224 216 215 215 212 236 242 236 234 236 228 224 222 207 206 210 212 206 203 202
240 236 231 225 228 226 226 227 225 226 224 224 220 230 231 233 228 224 219 217 219 216 217 214 221 223 222 235 213 220 240 253 251 245 246 236 223 219 211 207 203 200 201
255 241 241 233 231 223 226 225 227 226 225 225 225 219 222 222 225 227 220 217 214 215 217 222 223 213 226 225 240 245 251 254 263 259 253 242 250 250 233 217 215 213 210
294 277 262 241 243 237 229 230 228 229 223 223 223 224 218 222 217 224 229 228 222 221 221 215 229 230 226 246 257 267 260 265 265 268 265 262 263 257 257 251 248 244 242
228 279 297 290 267 245 242 234 229 233 230 226 227 222 226 225 219 219 226 229 228 223 224 221 224 239 248 256 248 249 264 268 268 269 269 270 272 266 262 261 260 254 254
272 273 238 284 297 299 264 249 238 236 236 228 222 236 231 231 221 224 224 224 228 235 239 236 252 255 247 245 239 242 244 254 256 264 272 267 263 265 263 262 258 254 253
266 272 277 270 284 281 317 286 253 251 239 239 228 234 228 228 227 225 226 217 241 245 251 243 241 235 238 243 251 258 258 253 242 248 249 246 250 246 247 254 251 245 244
252 256 277 277 277 276 290 267 312 258 248 242 242 237 229 235 233 234 236 232 232 230 237 227 234 248 259 268 289 291 278 284 279 286 286 273 270 247 247 241 241 248 250
271 234 248 280 281 278 275 278 298 306 287 250 245 239 243 241 237 230 230 232 240 242 234 248 257 269 293 295 365 361 356 360 361 365 345 283 270 277 281 280 259 236 236
267 282 277 265 258 283 277 276 295 297 299 292 250 244 242 239 239 238 241 245 261 253 251 259 275 311 363 351 350 345 348 343 348 360 315 311 325 321 257 262 261 257 256
278 285 266 260 282 281 285 304 301 288 294 296 287 250 241 240 241 241 250 254 243 252 252 272 290 296 342 332 330 330 322 332 377 333 294 322 307 310 316 307 273 275 263
282 272 292 305 312 312 305 301 292 283 289 281 280 282 253 243 245 246 245 243 247 245 264 268 291 286 286 319 311 305 305 312 324 324 292 289 294 296 297 296 284 267 267
308 324 320 310 303 297 294 291 285 283 277 268 264 263 261 255 249 241 239 240 241 262 252 271 285 273 292 264 306 308 299 293 293 302 294 294 302 288 305 284 278 267 263
336 317 306 293 291 284 290 287 281 274 267 256 250 243 240 240 240 240 238 241 254 249 254 271 264 273 264 261 273 266 266 305 294 290 288 286 288 291 291 297 277 266 262
312 303 285 286 288 280 281 279 274 266 259 245 241 240 240 241 239 233 240 250 248 250 255 251 260 256 260 269 257 257 260 271 263 260 271 293 290 287 288 289 296 282 270
299 280 279 283 281 273 264 265 265 257 246 240 236 240 236 231 234 241 248 249 242 247 244 247 251 251 252 255 255 261 258 254 256 258 266 268 262 256 261 297 300 297 300
Wind_Speed
39 29 58 57 36 28 31 34 37 29 28 33 32 37 67 50 57 58 43 56 35 61 59 36 54 67 67 55 36 56 63 64 71 70 60 50 45 57 53 53 54 63 54
85 52 86 65 85 85 81 43 41 43 37 45 44 49 40 44 68 63 52 42 42 71 54 42 39 46 47 42 59 60 52 42 41 43 45 50 47 50 51 51 47 56 60
85 49 82 83 81 83 85 82 82 76 66 53 51 52 51 49 52 53 71 70 76 59 63 67 70 41 44 45 47 46 45 47 47 49 50 49 51 58 51 54 60 56 69
81 81 89 85 91 87 84 83 83 85 83 83 82 80 71 61 60 60 55 66 55 55 62 65 69 51 52 52 52 54 51 52 65 54 53 52 57 75 69 59 71 45 62
87 84 86 90 86 86 87 87 86 84 79 79 86 79 79 80 76 75 77 74 72 61 56 63 66 73 59 60 58 63 59 58 67 69 59 55 57 62 68 59 62 74 66
90 92 90 91 93 92 89 88 91 91 91 87 84 83 78 82 84 83 75 64 65 55 57 55 62 74 76 75 78 79 79 75 56 56 75 80 81 77 63 73 70 72 70
91 93 94 94 94 96 97 95 97 100 99 98 96 91 90 86 85 77 74 70 69 56 61 61 60 66 75 78 71 79 59 82 82 82 82 83 85 66 81 81 77 79 76
83 89 94 97 99 99 98 100 97 97 100 98 97 96 88 79 81 79 63 75 69 60 61 62 65 66 67 72 78 80 80 79 83 74 70 75 86 81 79 83 81 81 80
83 78 81 91 97 100 101 103 104 104 103 99 94 95 88 81 75 71 71 71 67 70 68 62 64 71 74 76 79 83 85 86 86 87 87 89 89 89 88 89 87 86 86
77 78 79 80 80 84 89 93 93 96 95 94 92 81 78 76 77 74 72 73 72 70 72 71 70 69 73 78 84 86 88 91 90 92 90 90 91 92 87 89 91 93 91
78 80 82 84 85 85 83 81 87 88 87 82 82 80 79 77 76 73 74 75 74 77 74 72 75 77 76 76 80 86 91 95 98 99 98 98 92 93 94 96 97 98 94
80 83 84 85 84 84 83 81 83 82 82 81 83 75 76 75 76 74 75 78 76 78 79 77 77 77 78 79 83 84 87 89 95 99 103 107 102 101 99 97 99 95 99
86 83 85 86 87 86 86 85 84 83 82 82 81 82 79 79 77 77 77 78 80 82 81 82 82 80 84 83 85 85 87 88 89 92 98 101 103 105 109 104 107 106 110
70 83 88 88 90 90 88 89 88 86 85 85 84 82 83 82 82 80 78 81 80 81 85 83 87 86 86 91 91 87 86 87 88 90 93 95 97 100 101 104 105 104 107
59 69 74 82 89 92 91 92 90 87 87 86 86 86 85 85 82 82 82 83 83 82 84 86 86 92 92 89 88 87 87 87 88 89 90 91 93 94 97 99 98 97 96
58 61 63 66 71 82 88 93 93 92 90 89 88 85 86 85 83 84 84 83 84 85 86 90 89 86 86 88 89 88 86 88 89 90 92 92 92 92 94 96 98 96 93
57 58 61 64 62 65 70 81 87 90 92 90 89 87 87 86 86 86 86 78 89 86 83 84 84 82 86 88 92 93 94 95 93 95 94 93 93 94 94 94 96 95 95
63 64 59 62 62 62 63 69 68 86 87 89 88 88 86 85 87 89 90 89 82 81 79 76 82 89 91 94 94 95 96 98 97 98 98 98 99 98 98 95 96 96 97
61 63 63 59 61 61 63 62 65 62 77 84 85 82 83 83 84 86 87 84 87 82 80 84 86 88 83 78 49 49 52 52 53 43 54 94 99 97 94 94 100 96 96
61 57 57 58 61 61 61 57 60 59 59 68 80 80 79 79 79 81 82 82 77 77 79 78 77 71 41 41 35 36 33 38 41 42 52 65 56 63 95 96 95 94 94
59 57 57 59 58 57 58 53 50 50 52 52 63 76 75 75 74 76 73 69 70 71 71 66 62 57 35 34 31 29 29 27 28 36 53 44 48 50 52 75 89 88 93
55 54 54 52 46 43 45 43 41 43 43 41 42 47 70 69 69 65 62 64 64 64 60 58 50 45 39 28 27 27 30 27 29 36 44 48 52 57 56 64 76 84 86
53 47 41 39 39 39 38 37 36 38 37 35 38 41 47 51 52 55 56 58 60 56 56 53 44 41 35 35 27 26 26 27 25 30 43 46 47 53 50 62 71 79 84
42 37 34 35 33 33 32 31 33 34 33 32 35 39 43 46 48 49 52 55 53 52 52 46 45 41 38 35 32 29 25 25 27 30 34 37 43 48 53 57 70 78 83
33 31 32 31 28 28 25 26 29 29 30 32 35 39 40 42 44 47 51 49 47 49 48 46 42 42 40 40 36 32 29 27 26 25 26 38 42 46 50 53 56 72 80
29 31 30 27 27 25 24 24 26 27 29 33 35 37 38 41 44 47 46 46 44 46 45 44 42 42 41 40 40 38 37 34 32 32 31 32 34 35 37 54 59 63 67
Wind_Direction
256 254 254 253 257 253 257 261 257 254 256 267 264 269 260 262 261 258 262 268 259 265 269 261 266 263 261 259 262 261 261 263 256 257 261 268 274 267 270 273 273 270 273
255 255 254 258 257 259 260 262 259 261 264 265 266 256 269 267 260 259 265 265 264 266 260 263 263 263 260 266 261 260 261 269 270 272 274 271 276 273 274 279 276 273 270
248 260 259 261 255 258 260 262 263 261 263 264 267 266 266 268 264 261 276 270 267 259 263 253 262 260 267 270 270 270 271 274 273 274 275 277 278 268 278 278 272 281 268
249 249 254 260 261 263 266 263 263 269 269 272 274 274 274 268 266 267 264 266 265 265 253 253 254 267 268 270 270 268 269 270 263 271 271 275 275 261 263 280 265 270 275
252 248 252 256 259 260 261 262 264 266 266 269 272 271 272 274 272 272 277 279 278 260 260 252 258 254 266 260 271 267 269 270 263 264 271 273 274 275 270 279 279 266 273
246 250 249 249 253 259 263 265 265 266 267 268 268 269 268 272 276 277 277 274 274 260 265 261 252 251 256 253 253 256 259 265 269 269 264 263 265 266 278 268 272 273 268
248 247 248 251 251 251 255 259 260 262 264 266 267 269 271 272 274 272 274 272 275 266 256 265 260 254 254 257 257 257 273 261 263 263 263 262 263 281 266 266 271 265 264
248 248 249 249 250 253 255 256 259 261 262 264 266 268 269 269 269 270 263 270 271 265 267 257 259 258 254 256 255 258 257 257 257 269 272 274 264 269 274 268 267 266 265
251 245 245 246 248 250 252 254 256 258 261 262 265 266 267 265 264 263 265 265 265 268 269 265 262 258 259 258 255 256 259 259 261 261 259 262 265 265 266 267 269 269 269
250 251 251 251 251 251 253 253 253 256 258 260 262 261 261 262 263 262 261 263 264 265 266 267 267 263 262 259 258 258 258 258 262 260 261 262 263 265 268 269 270 271 270
249 250 251 252 253 255 255 255 255 257 259 262 262 261 260 260 261 260 262 262 263 265 265 265 264 265 265 265 263 261 261 261 260 259 260 259 263 264 264 264 266 269 271
252 251 250 252 253 255 255 255 255 256 256 257 259 260 260 259 258 258 260 263 263 264 266 266 267 267 266 268 265 267 264 264 262 260 259 258 259 259 261 263 265 267 268
254 255 252 252 251 254 254 255 255 254 256 257 257 258 258 259 260 259 259 261 264 266 268 268 269 267 270 269 271 271 270 267 266 262 261 260 260 259 258 260 261 263 265
262 257 254 254 255 254 255 255 255 255 256 257 257 257 258 259 261 262 262 261 262 265 268 270 272 272 271 277 276 274 271 270 268 266 262 261 261 260 260 259 259 260 262
268 263 263 259 256 255 255 256 258 257 254 256 257 260 260 259 262 264 264 264 265 268 270 272 272 274 276 276 276 275 273 272 270 268 266 264 262 262 261 261 261 261 261
272 267 270 265 264 260 257 256 257 258 257 257 260 258 259 260 263 264 266 268 270 272 272 273 277 276 275 275 275 273 271 270 268 266 265 263 262 261 261 260 260 260 259
276 274 268 265 264 264 265 258 257 257 257 257 257 259 260 262 264 266 268 270 272 274 275 276 277 278 277 275 274 274 271 267 265 263 261 260 259 259 259 260 260 260 259
276 277 273 268 265 263 267 259 261 253 254 255 257 258 260 261 263 266 269 271 274 274 277 278 280 282 283 282 280 276 272 268 264 262 259 257 256 259 259 259 261 262 261
280 279 278 270 267 263 261 262 265 260 253 253 255 258 260 262 263 267 270 274 277 279 280 284 286 288 288 283 283 278 274 269 263 252 262 256 254 253 254 256 258 260 260
279 277 273 272 272 265 262 263 267 261 258 254 252 255 258 262 265 268 272 276 281 283 285 289 293 298 294 294 291 286 281 274 262 246 241 251 251 253 253 253 254 256 257
281 277 274 273 269 265 265 263 261 260 259 257 254 253 257 262 266 270 275 280 283 287 290 296 302 305 306 304 298 291 284 297 268 222 243 250 248 248 247 244 250 252 255
282 278 276 270 266 261 259 257 254 257 255 258 257 258 256 262 266 272 277 280 285 289 296 302 307 310 326 311 309 305 306 290 283 227 241 244 248 250 248 244 242 248 251
285 278 269 263 260 258 257 252 251 249 251 254 256 259 261 264 268 272 277 283 288 295 298 307 312 312 329 318 317 302 298 297 292 252 253 252 254 253 252 242 243 247 251
277 266 259 257 257 257 250 249 244 247 247 250 252 257 261 265 269 276 280 286 292 296 301 310 312 320 317 319 330 323 329 289 284 278 274 271 269 264 261 255 246 249 252
264 255 256 254 250 245 242 243 245 244 243 246 252 256 262 267 273 277 282 287 291 298 303 307 315 314 320 323 316 314 318 320 310 305 301 274 269 269 268 265 262 252 254
254 252 253 245 237 232 237 239 236 236 240 247 254 259 263 270 275 279 284 287 290 296 299 302 307 309 310 312 313 314 310 307 305 302 301 298 291 283 282 271 269 268 266